Find Starlink 6120

NORAD ID: 56131 Int'l Des: 2023-046 Owner: SPXS Country: US Constellation: starlink operational
LEOCIRCULAR

Live Position

Loading 3D Globe...

About Starlink 6120

Description loading...

Upcoming Passes

Passes for default location (London). Set your location on the main map for personalized predictions.

Altitude History

Loading altitude history...

Two-Line Element Set

1 56131U 23046AR 26106.57564972 .00000973 00000-0 44900-4 0 9991
2 56131 43.0045 293.0814 0001370 269.5678 90.5016 15.27562828167994
Epoch: Apr 16, 2026 • Age: 10 hours

Current Status

Altitude 485.4 km
Velocity 7.63 km/s
Sub-Earth Point 35.09°N, 139.41°W
Launch Date Mar 29, 2023
Age 3 years
Type internet

Technical Details

Classification Payload
Mass 305.00 kg
Dry Mass 290.00 kg
Total Mass 305.00 kg
Length 0.20 m
Diameter 2.80 m
Span 9.00 m
Shape Box + pan
Manufacturer SPXS
Bus Type Starlink
Phase Status In Orbit
Owner/State SPXS/US

Most Searched